| time (UTC) | temp C | wind direction | speed KPH | gust KPH | rain 1hr cm | rain 24hr cm | rain mn cm | humidity % | barometer mb |
| 20260504035606 | 6 | 320 | 0.0 | 4.8 | 0.00 | 0.00 | 0.00 | 74 | 1018.6 |
| 20260504035102 | 6 | 3 | 4.8 | 4.8 | 0.00 | 0.00 | 0.00 | 75 | 1018.6 |
| 20260504034600 | 6 | 342 | 0.0 | 4.8 | 0.00 | 0.00 | 0.00 | 74 | 1018.7 |
| 20260504034056 | 6 | 342 | 4.8 | 4.8 | 0.00 | 0.00 | 0.00 | 72 | 1018.8 |
| 20260504033554 | 7 | 348 | 4.8 | 8.0 | 0.00 | 0.00 | 0.00 | 73 | 1018.5 |
| 20260504033051 | 7 | 334 | 3.2 | 4.8 | 0.00 | 0.00 | 0.00 | 72 | 1018.8 |
| 20260504032548 | 7 | 341 | 4.8 | 6.4 | 0.00 | 0.00 | 0.00 | 72 | 1018.5 |
| 20260504032045 | 7 | 358 | 4.8 | 6.4 | 0.00 | 0.00 | 0.00 | 70 | 1018.5 |
| 20260504031542 | 7 | 0 | 4.8 | 6.4 | 0.00 | 0.00 | 0.00 | 71 | 1018.4 |
| 20260504031038 | 7 | 315 | 4.8 | 6.4 | 0.00 | 0.00 | 0.00 | 68 | 1018.6 |
| 20260504030536 | 8 | 333 | 0.0 | 4.8 | 0.00 | 0.00 | 0.00 | 67 | 1018.6 |
| 20260504030032 | 8 | 0 | 4.8 | 6.4 | 0.00 | 0.00 | 0.00 | 66 | 1018.6 |
| 20260504025529 | 8 | 330 | 4.8 | 6.4 | 0.00 | 0.00 | 0.00 | 64 | 1018.6 |
| 20260504025026 | 8 | 0 | 3.2 | 4.8 | 0.00 | 0.00 | 0.00 | 63 | 1018.5 |
| 20260504024523 | 8 | 322 | 4.8 | 6.4 | 0.00 | 0.00 | 0.00 | 63 | 1018.4 |
| 20260504024020 | 8 | 333 | 4.8 | 8.0 | 0.00 | 0.00 | 0.00 | 62 | 1018.7 |
| 20260504023516 | 9 | 344 | 6.4 | 8.0 | 0.00 | 0.00 | 0.00 | 63 | 1018.6 |
| 20260504023012 | 9 | 349 | 4.8 | 4.8 | 0.00 | 0.00 | 0.00 | 61 | 1018.7 |
| 20260504022508 | 10 | 347 | 8.0 | 8.0 | 0.00 | 0.00 | 0.00 | 61 | 1018.6 |
| 20260504022005 | 10 | 350 | 4.8 | 6.4 | 0.00 | 0.00 | 0.00 | 57 | 1018.5 |
| 20260504021503 | 10 | 331 | 4.8 | 8.0 | 0.00 | 0.00 | 0.00 | 58 | 1018.3 |
| 20260504020959 | 10 | 342 | 3.2 | 4.8 | 0.00 | 0.00 | 0.00 | 55 | 1018.2 |
| 20260504020456 | 10 | 344 | 3.2 | 4.8 | 0.00 | 0.00 | 0.00 | 54 | 1018.0 |
| 20260504015953 | 10 | 16 | 0.0 | 4.8 | 0.00 | 0.00 | 0.00 | 56 | 1018.0 |
| 20260504015449 | 10 | 37 | 0.0 | 4.8 | 0.00 | 0.00 | 0.00 | 54 | 1018.1 |
| 20260504014945 | 10 | 24 | 3.2 | 3.2 | 0.00 | 0.00 | 0.00 | 55 | 1017.9 |
| 20260504014441 | 10 | 20 | 0.0 | 0.0 | 0.00 | 0.00 | 0.00 | 54 | 1018.0 |
| 20260504013938 | 10 | 26 | 0.0 | 3.2 | 0.00 | 0.00 | 0.00 | 54 | 1017.9 |
| 20260504013437 | 11 | 13 | 0.0 | 4.8 | 0.00 | 0.00 | 0.00 | 53 | 1017.9 |
| 20260504012932 | 11 | 328 | 0.0 | 3.2 | 0.00 | 0.00 | 0.00 | 52 | 1017.9 |
| 20260504012430 | 11 | 2 | 0.0 | 0.0 | 0.00 | 0.00 | 0.00 | 53 | 1018.0 |
| 20260504011928 | 11 | 12 | 0.0 | 3.2 | 0.00 | 0.00 | 0.00 | 52 | 1017.8 |
| 20260504011424 | 11 | 53 | 4.8 | 4.8 | 0.00 | 0.00 | 0.00 | 52 | 1017.8 |
| 20260504010920 | 11 | 32 | 4.8 | 6.4 | 0.00 | 0.00 | 0.00 | 53 | 1017.7 |
| 20260504010416 | 11 | 30 | 3.2 | 4.8 | 0.00 | 0.00 | 0.00 | 51 | 1017.7 |
| 20260504005913 | 11 | 27 | 0.0 | 4.8 | 0.00 | 0.00 | 0.00 | 51 | 1017.7 |
| 20260504005409 | 11 | 352 | 0.0 | 3.2 | 0.00 | 0.00 | 0.00 | 50 | 1017.5 |
| 20260504004907 | 12 | 40 | 3.2 | 3.2 | 0.00 | 0.00 | 0.00 | 51 | 1017.7 |
| 20260504004405 | 12 | 321 | 3.2 | 4.8 | 0.00 | 0.00 | 0.00 | 50 | 1017.4 |
| 20260504003901 | 12 | 292 | 3.2 | 4.8 | 0.00 | 0.00 | 0.00 | 49 | 1017.3 |
| 20260504003358 | 12 | 335 | 3.2 | 6.4 | 0.00 | 0.00 | 0.00 | 48 | 1017.3 |
| 20260504002854 | 13 | 334 | 3.2 | 4.8 | 0.00 | 0.00 | 0.00 | 48 | 1017.2 |
| 20260504002351 | 13 | 315 | 4.8 | 4.8 | 0.00 | 0.00 | 0.00 | 45 | 1017.2 |
| 20260504001849 | 13 | 331 | 0.0 | 4.8 | 0.00 | 0.00 | 0.00 | 44 | 1017.3 |
| 20260504001346 | 13 | 311 | 4.8 | 6.4 | 0.00 | 0.00 | 0.00 | 45 | 1017.1 |
| 20260504000842 | 14 | 27 | 4.8 | 4.8 | 0.00 | 0.00 | 0.00 | 42 | 1017.1 |
| 20260504000340 | 15 | 227 | 0.0 | 3.2 | 0.00 | 0.00 | 0.00 | 43 | 1017.0 |
| 20260503235837 | 15 | 346 | 0.0 | 3.2 | 0.00 | 0.00 | 0.00 | 42 | 1017.2 |
| 20260503235335 | 15 | 147 | 0.0 | 3.2 | 0.00 | 0.00 | 0.00 | 41 | 1017.0 |
| 20260503234832 | 15 | 89 | 0.0 | 4.8 | 0.00 | 0.00 | 0.00 | 39 | 1017.0 |
| 20260503234330 | 15 | 317 | 4.8 | 6.4 | 0.00 | 0.00 | 0.00 | 38 | 1017.1 |
| 20260503233827 | 15 | 15 | 3.2 | 6.4 | 0.00 | 0.00 | 0.00 | 38 | 1017.0 |
| 20260503233323 | 16 | 242 | 3.2 | 4.8 | 0.00 | 0.00 | 0.00 | 39 | 1016.8 |
| 20260503232820 | 16 | 285 | 4.8 | 8.0 | 0.00 | 0.00 | 0.00 | 41 | 1016.8 |
| 20260503232317 | 16 | 18 | 6.4 | 9.7 | 0.00 | 0.00 | 0.00 | 36 | 1016.8 |
| 20260503231815 | 16 | 45 | 4.8 | 8.0 | 0.00 | 0.00 | 0.00 | 36 | 1017.0 |
| 20260503231312 | 16 | 48 | 16.1 | 17.7 | 0.00 | 0.00 | 0.00 | 35 | 1016.6 |
| 20260503230808 | 17 | 66 | 8.0 | 12.9 | 0.00 | 0.00 | 0.00 | 35 | 1016.8 |
| 20260503230305 | 17 | 44 | 8.0 | 11.3 | 0.00 | 0.00 | 0.00 | 36 | 1016.7 |
| 20260503225802 | 17 | 29 | 6.4 | 8.0 | 0.00 | 0.00 | 0.00 | 35 | 1016.6 |
| 20260503225258 | 17 | 16 | 8.0 | 9.7 | 0.00 | 0.00 | 0.00 | 35 | 1016.8 |
| 20260503224755 | 17 | 21 | 8.0 | 8.0 | 0.00 | 0.00 | 0.00 | 35 | 1016.6 |
| 20260503224252 | 17 | 26 | 4.8 | 6.4 | 0.00 | 0.00 | 0.00 | 33 | 1016.8 |
| 20260503223749 | 17 | 32 | 8.0 | 12.9 | 0.00 | 0.00 | 0.00 | 34 | 1016.6 |
| 20260503223247 | 17 | 329 | 0.0 | 8.0 | 0.00 | 0.00 | 0.00 | 34 | 1016.7 |
| 20260503222743 | 17 | 61 | 4.8 | 8.0 | 0.00 | 0.00 | 0.00 | 34 | 1016.8 |
| 20260503222241 | 18 | 15 | 4.8 | 8.0 | 0.00 | 0.00 | 0.00 | 34 | 1016.6 |
| 20260503221739 | 18 | 282 | 0.0 | 6.4 | 0.00 | 0.00 | 0.00 | 33 | 1016.7 |
| 20260503221237 | 18 | 35 | 4.8 | 16.1 | 0.00 | 0.00 | 0.00 | 33 | 1016.6 |
| 20260503220733 | 18 | 68 | 11.3 | 11.3 | 0.00 | 0.00 | 0.00 | 33 | 1016.7 |
| 20260503220230 | 18 | 37 | 3.2 | 9.7 | 0.00 | 0.00 | 0.00 | 34 | 1016.7 |
| 20260503215727 | 18 | 180 | 0.0 | 8.0 | 0.00 | 0.00 | 0.00 | 34 | 1016.8 |
| 20260503215224 | 18 | 350 | 0.0 | 8.0 | 0.00 | 0.00 | 0.00 | 34 | 1016.8 |
| 20260503214722 | 18 | 280 | 6.4 | 14.5 | 0.00 | 0.00 | 0.00 | 34 | 1016.6 |
| 20260503214218 | 18 | 320 | 4.8 | 12.9 | 0.00 | 0.00 | 0.00 | 32 | 1016.8 |
| 20260503213717 | 18 | 304 | 4.8 | 8.0 | 0.00 | 0.00 | 0.00 | 33 | 1017.0 |
| 20260503213213 | 18 | 10 | 6.4 | 11.3 | 0.00 | 0.00 | 0.00 | 32 | 1016.9 |
| 20260503212710 | 18 | 353 | 6.4 | 8.0 | 0.00 | 0.00 | 0.00 | 31 | 1016.9 |
| 20260503212208 | 18 | 359 | 4.8 | 8.0 | 0.00 | 0.00 | 0.00 | 31 | 1016.9 |
| 20260503211705 | 18 | 35 | 8.0 | 8.0 | 0.00 | 0.00 | 0.00 | 30 | 1016.9 |
| 20260503211201 | 18 | 46 | 4.8 | 14.5 | 0.00 | 0.00 | 0.00 | 29 | 1017.0 |
| 20260503210657 | 18 | 350 | 8.0 | 9.7 | 0.00 | 0.00 | 0.00 | 28 | 1016.8 |
| 20260503210154 | 18 | 322 | 8.0 | 11.3 | 0.00 | 0.00 | 0.00 | 29 | 1017.1 |
| 20260503205649 | 18 | 282 | 8.0 | 11.3 | 0.00 | 0.00 | 0.00 | 28 | 1016.9 |
| 20260503205146 | 18 | 22 | 11.3 | 12.9 | 0.00 | 0.00 | 0.00 | 28 | 1017.1 |
| 20260503204643 | 18 | 300 | 8.0 | 8.0 | 0.00 | 0.00 | 0.00 | 30 | 1017.2 |
| 20260503204140 | 18 | 52 | 16.1 | 19.3 | 0.00 | 0.00 | 0.00 | 28 | 1017.3 |
| 20260503203637 | 18 | 6 | 4.8 | 4.8 | 0.00 | 0.00 | 0.00 | 28 | 1017.2 |
| 20260503203135 | 18 | 353 | 6.4 | 8.0 | 0.00 | 0.00 | 0.00 | 28 | 1017.4 |
| 20260503202632 | 18 | 11 | 6.4 | 11.3 | 0.00 | 0.00 | 0.00 | 30 | 1017.2 |
| 20260503202130 | 18 | 201 | 3.2 | 11.3 | 0.00 | 0.00 | 0.00 | 28 | 1017.3 |
| 20260503201628 | 18 | 307 | 4.8 | 4.8 | 0.00 | 0.00 | 0.00 | 30 | 1017.3 |
| 20260503201125 | 18 | 251 | 4.8 | 8.0 | 0.00 | 0.00 | 0.00 | 27 | 1017.3 |
| 20260503200621 | 18 | 267 | 6.4 | 11.3 | 0.00 | 0.00 | 0.00 | 29 | 1017.5 |
| 20260503200118 | 18 | 339 | 4.8 | 11.3 | 0.00 | 0.00 | 0.00 | 30 | 1017.7 |
| 20260503195615 | 18 | 14 | 4.8 | 6.4 | 0.00 | 0.00 | 0.00 | 27 | 1017.8 |
| 20260503195112 | 18 | 351 | 4.8 | 12.9 | 0.00 | 0.00 | 0.00 | 27 | 1017.9 |
| 20260503194610 | 18 | 9 | 8.0 | 14.5 | 0.00 | 0.00 | 0.00 | 27 | 1018.0 |
| 20260503194109 | 18 | 342 | 9.7 | 9.7 | 0.00 | 0.00 | 0.00 | 27 | 1018.0 |
| 20260503193607 | 18 | 275 | 11.3 | 11.3 | 0.00 | 0.00 | 0.00 | 27 | 1018.1 |
| 20260503193102 | 18 | 342 | 4.8 | 9.7 | 0.00 | 0.00 | 0.00 | 26 | 1018.1 |
| 20260503192558 | 18 | 54 | 0.0 | 8.0 | 0.00 | 0.00 | 0.00 | 28 | 1018.0 |
| 20260503192054 | 18 | 334 | 8.0 | 8.0 | 0.00 | 0.00 | 0.00 | 30 | 1018.0 |
| 20260503191551 | 17 | 76 | 8.0 | 11.3 | 0.00 | 0.00 | 0.00 | 27 | 1018.4 |
| 20260503191048 | 18 | 239 | 12.9 | 16.1 | 0.00 | 0.00 | 0.00 | 27 | 1018.5 |
| 20260503190545 | 18 | 25 | 11.3 | 11.3 | 0.00 | 0.00 | 0.00 | 29 | 1018.4 |
| 20260503190042 | 17 | 69 | 4.8 | 9.7 | 0.00 | 0.00 | 0.00 | 30 | 1018.4 |
| 20260503185538 | 17 | 71 | 9.7 | 11.3 | 0.00 | 0.00 | 0.00 | 29 | 1018.4 |
| 20260503185032 | 17 | 20 | 6.4 | 11.3 | 0.00 | 0.00 | 0.00 | 28 | 1018.6 |
| 20260503184529 | 17 | 336 | 8.0 | 11.3 | 0.00 | 0.00 | 0.00 | 31 | 1018.6 |
| 20260503184025 | 17 | 339 | 14.5 | 14.5 | 0.00 | 0.00 | 0.00 | 30 | 1018.7 |
| 20260503183522 | 17 | 81 | 4.8 | 11.3 | 0.00 | 0.00 | 0.00 | 31 | 1018.8 |
| 20260503183019 | 17 | 21 | 3.2 | 8.0 | 0.00 | 0.00 | 0.00 | 32 | 1018.8 |
| 20260503182517 | 16 | 32 | 8.0 | 11.3 | 0.00 | 0.00 | 0.00 | 33 | 1018.9 |
| 20260503182015 | 17 | 38 | 11.3 | 17.7 | 0.00 | 0.00 | 0.00 | 32 | 1018.8 |
| 20260503181512 | 17 | 54 | 16.1 | 17.7 | 0.00 | 0.00 | 0.00 | 31 | 1019.0 |
| 20260503181008 | 17 | 34 | 8.0 | 12.9 | 0.00 | 0.00 | 0.00 | 33 | 1018.9 |
| 20260503180505 | 17 | 306 | 9.7 | 11.3 | 0.00 | 0.00 | 0.00 | 33 | 1019.0 |
| 20260503180002 | 16 | 234 | 3.2 | 9.7 | 0.00 | 0.00 | 0.00 | 33 | 1019.1 |
| 20260503175500 | 16 | 47 | 11.3 | 14.5 | 0.00 | 0.00 | 0.00 | 33 | 1019.1 |
| 20260503174956 | 16 | 300 | 11.3 | 11.3 | 0.00 | 0.00 | 0.00 | 33 | 1019.1 |
| 20260503174454 | 17 | 298 | 6.4 | 8.0 | 0.00 | 0.00 | 0.00 | 33 | 1019.0 |
| 20260503173949 | 17 | 268 | 8.0 | 11.3 | 0.00 | 0.00 | 0.00 | 33 | 1019.2 |
| 20260503173445 | 17 | 347 | 6.4 | 11.3 | 0.00 | 0.00 | 0.00 | 32 | 1019.4 |
| 20260503172942 | 17 | 300 | 4.8 | 11.3 | 0.00 | 0.00 | 0.00 | 31 | 1019.5 |
| 20260503172440 | 16 | 337 | 8.0 | 11.3 | 0.00 | 0.00 | 0.00 | 31 | 1019.7 |
| 20260503171936 | 16 | 308 | 6.4 | 11.3 | 0.00 | 0.00 | 0.00 | 33 | 1019.9 |
| 20260503171433 | 16 | 345 | 4.8 | 9.7 | 0.00 | 0.00 | 0.00 | 33 | 1019.7 |
| 20260503170931 | 16 | 9 | 8.0 | 16.1 | 0.00 | 0.00 | 0.00 | 34 | 1019.7 |
| 20260503170426 | 16 | 15 | 12.9 | 12.9 | 0.00 | 0.00 | 0.00 | 34 | 1019.9 |
| 20260503150819 | 11 | 352 | 6.4 | 9.7 | 0.00 | 0.00 | 0.00 | 50 | 1020.8 |
| 20260503150314 | 11 | 20 | 6.4 | 14.5 | 0.00 | 0.00 | 0.00 | 48 | 1021.2 |
| 20260503140239 | 8 | 17 | 6.4 | 9.7 | 0.00 | 0.00 | 0.00 | 61 | 1021.1 |
| 20260503131209 | 5 | 38 | 6.4 | 8.0 | 0.00 | 0.00 | 0.00 | 90 | 1021.3 |
| 20260503130706 | 5 | 36 | 6.4 | 8.0 | 0.00 | 0.00 | 0.00 | 91 | 1021.2 |
| 20260503130204 | 4 | 37 | 4.8 | 8.0 | 0.00 | 0.00 | 0.00 | 92 | 1021.1 |
| 20260503120130 | 1 | 10 | 4.8 | 6.4 | 0.00 | 0.00 | 0.00 | 97 | 1020.7 |
| 20260503110551 | 1 | 348 | 4.8 | 4.8 | 0.00 | 0.00 | 0.00 | 96 | 1020.0 |
| 20260503090437 | 2 | 333 | 6.4 | 8.0 | 0.00 | 0.00 | 0.00 | 93 | 1018.8 |
| 20260503081404 | 2 | 334 | 0.0 | 4.8 | 0.00 | 0.00 | 0.00 | 92 | 1018.4 |
| 20260503080901 | 2 | 347 | 3.2 | 6.4 | 0.00 | 0.00 | 0.00 | 91 | 1018.4 |
| 20260503080358 | 2 | 336 | 4.8 | 8.0 | 0.00 | 0.00 | 0.00 | 91 | 1018.2 |
| 20260503072834 | 3 | 349 | 3.2 | 4.8 | 0.00 | 0.00 | 0.00 | 89 | 1017.9 |
| 20260503072331 | 3 | 348 | 4.8 | 6.4 | 0.00 | 0.00 | 0.00 | 89 | 1017.9 |
| 20260503071827 | 3 | 346 | 4.8 | 8.0 | 0.00 | 0.00 | 0.00 | 89 | 1017.9 |
| 20260503071325 | 3 | 346 | 6.4 | 8.0 | 0.00 | 0.00 | 0.00 | 88 | 1017.9 |
| 20260503070821 | 3 | 330 | 4.8 | 4.8 | 0.00 | 0.00 | 0.00 | 88 | 1017.8 |
| 20260503070319 | 3 | 344 | 6.4 | 6.4 | 0.00 | 0.00 | 0.00 | 88 | 1017.8 |
| 20260503060244 | 5 | 354 | 3.2 | 6.4 | 0.00 | 0.00 | 0.00 | 84 | 1017.8 |
| 20260503054731 | 5 | 318 | 3.2 | 6.4 | 0.00 | 0.00 | 0.00 | 80 | 1017.7 |
| 20260503054228 | 5 | 3 | 3.2 | 4.8 | 0.00 | 0.00 | 0.00 | 80 | 1017.9 |
| 20260503053726 | 5 | 358 | 4.8 | 6.4 | 0.00 | 0.00 | 0.00 | 80 | 1018.0 |
| 20260503053225 | 6 | 354 | 4.8 | 6.4 | 0.00 | 0.00 | 0.00 | 81 | 1017.7 |
| 20260503052720 | 6 | 359 | 3.2 | 6.4 | 0.00 | 0.00 | 0.00 | 78 | 1017.8 |
| 20260503052217 | 6 | 303 | 6.4 | 6.4 | 0.00 | 0.00 | 0.00 | 79 | 1017.9 |
| 20260503051712 | 6 | 322 | 8.0 | 8.0 | 0.00 | 0.00 | 0.00 | 79 | 1017.7 |
| 20260503051210 | 6 | 8 | 0.0 | 4.8 | 0.00 | 0.00 | 0.00 | 77 | 1018.0 |
| 20260503050706 | 6 | 319 | 0.0 | 3.2 | 0.00 | 0.00 | 0.00 | 77 | 1018.0 |
| 20260503050203 | 6 | 324 | 4.8 | 4.8 | 0.00 | 0.00 | 0.00 | 77 | 1018.0 |
| 20260503045701 | 6 | 335 | 6.4 | 6.4 | 0.00 | 0.00 | 0.00 | 76 | 1018.1 |
| 20260503045158 | 6 | 340 | 4.8 | 8.0 | 0.00 | 0.00 | 0.00 | 77 | 1018.0 |
| 20260503044654 | 6 | 23 | 4.8 | 6.4 | 0.00 | 0.00 | 0.00 | 77 | 1017.8 |
| 20260503044152 | 6 | 334 | 8.0 | 8.0 | 0.00 | 0.00 | 0.00 | 76 | 1018.0 |
| 20260503043648 | 6 | 341 | 0.0 | 6.4 | 0.00 | 0.00 | 0.00 | 75 | 1017.5 |
| 20260503043146 | 6 | 357 | 3.2 | 4.8 | 0.00 | 0.00 | 0.00 | 75 | 1017.7 |
| 20260503042642 | 6 | 327 | 6.4 | 8.0 | 0.00 | 0.00 | 0.00 | 75 | 1017.8 |
| 20260503042138 | 6 | 31 | 6.4 | 8.0 | 0.00 | 0.00 | 0.00 | 76 | 1017.7 |
| 20260503041634 | 6 | 350 | 3.2 | 4.8 | 0.00 | 0.00 | 0.00 | 76 | 1017.7 |
| 20260503041132 | 6 | 354 | 6.4 | 6.4 | 0.00 | 0.00 | 0.00 | 76 | 1017.5 |
| 20260503040629 | 6 | 355 | 3.2 | 4.8 | 0.00 | 0.00 | 0.00 | 76 | 1017.4 |
| 20260503040127 | 6 | 9 | 3.2 | 4.8 | 0.00 | 0.00 | 0.00 | 75 | 1017.5 |